Location: Spring Creek
(38.2870°N, 100.2160°W)
Time: 07:41:17
(UTC+00:00)

Lacrosse 4 Rocket - Pass Details

Date: 08 May 2021
Orbit: 541 x 616 km, 68.0° (Epoch: 21 June)

Event Time Altitude Azimuth Distance (km) Brightness Sun altitude
Exits shadow 10:48:03 12° 237° (WSW) 1,833 3.3 -9.3°
Maximum altitude 10:51:46 36° 302° (WNW) 983 2.4 -8.6°
Drops below altitude 10° 10:55:51 10° 9° (N) 1,967 4.7 -7.9°
Sets 10:58:16 0° 19° (NNE) 2,866 5.8 -7.5°
